TimeAEST,TemperatureF,Dew PointF,Humidity,Sea Level PressureIn,VisibilityMPH,Wind Direction,Wind SpeedMPH,Gust SpeedMPH,PrecipitationIn,Events,Conditions,WindDirDegrees,DateUTC
12:00 AM,50,49,95,30.24,,North,6.9,,,,,0,2013-06-23 14:00:00
12:00 AM,50.0,50.0,100,30.21,6.2,North,6.9,-,N/A,,Scattered Clouds,350,2013-06-23 14:00:00
12:35 AM,50.0,50.0,100,30.21,6.2,North,8.1,-,N/A,,Mostly Cloudy,350,2013-06-23 14:35:00
1:00 AM,51,50,93,30.21,,WNW,12.7,,,,,300,2013-06-23 15:00:00
1:00 AM,51.8,50.0,94,30.18,6.2,WNW,12.7,-,N/A,,Overcast,300,2013-06-23 15:00:00
1:30 AM,51.8,50.0,94,30.21,6.2,NW,9.2,-,N/A,,Overcast,320,2013-06-23 15:30:00
2:00 AM,51.8,50.0,94,30.21,6.2,NW,8.1,-,N/A,,Overcast,320,2013-06-23 16:00:00
2:10 AM,51.8,50.0,94,30.21,6.2,NW,8.1,-,N/A,,Overcast,310,2013-06-23 16:10:00
2:30 AM,51.8,50.0,94,30.18,6.2,NW,9.2,-,N/A,,Scattered Clouds,320,2013-06-23 16:30:00
3:00 AM,51,49,92,30.20,,WNW,11.5,,,,Overcast,290,2013-06-23 17:00:00
3:00 AM,51.8,50.0,94,30.18,6.2,WNW,11.5,-,N/A,,Mostly Cloudy,290,2013-06-23 17:00:00
3:30 AM,50.0,48.2,94,30.18,6.2,WNW,10.4,-,N/A,,Scattered Clouds,290,2013-06-23 17:30:00
4:00 AM,51,49,92,30.20,,WNW,10.4,,,,,290,2013-06-23 18:00:00
4:00 AM,50.0,50.0,100,30.18,6.2,WNW,10.4,-,N/A,,Mostly Cloudy,290,2013-06-23 18:00:00
4:30 AM,50.0,50.0,100,30.18,6.2,NW,8.1,-,N/A,,Overcast,320,2013-06-23 18:30:00
5:00 AM,50.0,50.0,100,30.18,6.2,WNW,9.2,-,N/A,,Overcast,300,2013-06-23 19:00:00
5:30 AM,50.0,48.2,94,30.18,6.2,WNW,10.4,-,N/A,,Overcast,290,2013-06-23 19:30:00
6:00 AM,51,49,92,30.20,9,WNW,5.8,,,,Mostly Cloudy,290,2013-06-23 20:00:00
6:00 AM,50.0,50.0,100,30.18,6.2,WNW,5.8,-,N/A,,Mostly Cloudy,290,2013-06-23 20:00:00
6:30 AM,50.0,50.0,100,30.18,6.2,WNW,1.2,-,N/A,,Mostly Cloudy,290,2013-06-23 20:30:00
7:00 AM,51,50,93,30.21,,WNW,6.9,,,,,290,2013-06-23 21:00:00
7:00 AM,50.0,50.0,100,30.18,6.2,WNW,6.9,-,N/A,,Mostly Cloudy,290,2013-06-23 21:00:00
7:30 AM,51.8,50.0,94,30.18,6.2,WNW,8.1,-,N/A,,Mostly Cloudy,300,2013-06-23 21:30:00
8:00 AM,51.8,50.0,94,30.18,6.2,WNW,9.2,-,N/A,,Mostly Cloudy,300,2013-06-23 22:00:00
8:30 AM,51.8,50.0,94,30.18,6.2,WNW,9.2,-,N/A,,Mostly Cloudy,300,2013-06-23 22:30:00
9:00 AM,54,50,82,30.19,19,WNW,10.4,,,,Mostly Cloudy,290,2013-06-23 23:00:00
9:00 AM,53.6,50.0,88,30.18,6.2,WNW,10.4,-,N/A,,Mostly Cloudy,290,2013-06-23 23:00:00
9:30 AM,55.4,50.0,82,30.18,6.2,WNW,10.4,-,N/A,,Mostly Cloudy,290,2013-06-23 23:30:00
10:00 AM,56,50,75,30.17,,WNW,11.5,,,,,290,2013-06-24 00:00:00
10:00 AM,55.4,50.0,82,30.15,6.2,WNW,11.5,-,N/A,,Mostly Cloudy,290,2013-06-24 00:00:00
10:30 AM,57.2,48.2,72,30.15,6.2,WNW,12.7,-,N/A,,Mostly Cloudy,290,2013-06-24 00:30:00
11:00 AM,59.0,48.2,67,30.15,6.2,West,10.4,-,N/A,,Scattered Clouds,280,2013-06-24 01:00:00
11:30 AM,59.0,46.4,63,30.12,6.2,West,10.4,-,N/A,,Scattered Clouds,280,2013-06-24 01:30:00
12:00 PM,59,47,55,30.13,25,West,10.4,,,,Partly Cloudy,280,2013-06-24 02:00:00
12:00 PM,59.0,46.4,63,30.12,6.2,West,10.4,-,N/A,,Scattered Clouds,270,2013-06-24 02:00:00
12:30 PM,59.0,46.4,63,30.09,6.2,West,6.9,-,N/A,,Mostly Cloudy,260,2013-06-24 02:30:00
1:00 PM,60,46,50,30.10,,WSW,8.1,,,,,250,2013-06-24 03:00:00
1:00 PM,59.0,46.4,63,30.09,6.2,WSW,8.1,-,N/A,,Mostly Cloudy,250,2013-06-24 03:00:00
1:30 PM,62.6,44.6,52,30.06,6.2,WNW,2.3,-,N/A,,Mostly Cloudy,290,2013-06-24 03:30:00
2:00 PM,62.6,44.6,52,30.06,6.2,NW,9.2,-,N/A,,Mostly Cloudy,320,2013-06-24 04:00:00
2:30 PM,60.8,44.6,55,30.04,6.2,WNW,8.1,-,N/A,,Mostly Cloudy,300,2013-06-24 04:30:00
3:00 PM,61,44,42,30.05,25,WNW,8.1,,,,Partly Cloudy,300,2013-06-24 05:00:00
3:00 PM,60.8,44.6,55,30.04,6.2,WNW,8.1,-,N/A,,Mostly Cloudy,300,2013-06-24 05:00:00
3:30 PM,62.6,42.8,48,30.04,6.2,West,8.1,-,N/A,,Mostly Cloudy,270,2013-06-24 05:30:00
4:00 PM,61,43,41,30.03,,West,8.1,,,,,270,2013-06-24 06:00:00
4:00 PM,60.8,42.8,52,30.01,6.2,West,8.1,-,N/A,,Mostly Cloudy,270,2013-06-24 06:00:00
4:30 PM,60.8,44.6,55,30.01,6.2,WSW,4.6,-,N/A,,Scattered Clouds,250,2013-06-24 06:30:00
5:00 PM,55.4,46.4,72,30.01,6.2,South,3.5,-,N/A,,Scattered Clouds,170,2013-06-24 07:00:00
5:30 PM,53.6,48.2,82,30.01,6.2,Calm,Calm,-,N/A,,Partly Cloudy,0,2013-06-24 07:30:00
6:00 PM,50,48,89,30.03,,Calm,Calm,,,,,,2013-06-24 08:00:00
6:00 PM,50.0,48.2,94,30.01,6.2,Calm,Calm,-,N/A,,Partly Cloudy,0,2013-06-24 08:00:00
6:30 PM,48.2,46.4,93,30.01,6.2,NNW,5.8,-,N/A,,Scattered Clouds,330,2013-06-24 08:30:00
7:00 PM,49,47,90,30.02,,WNW,5.8,,,,,300,2013-06-24 09:00:00
7:00 PM,48.2,46.4,93,30.01,6.2,WNW,5.8,-,N/A,,Partly Cloudy,300,2013-06-24 09:00:00
7:30 PM,48.2,46.4,93,30.01,6.2,NW,4.6,-,N/A,,Scattered Clouds,320,2013-06-24 09:30:00
8:00 PM,48.2,44.6,87,30.01,6.2,WNW,8.1,-,N/A,,Partly Cloudy,300,2013-06-24 10:00:00
8:30 PM,48.2,46.4,93,30.01,6.2,NW,8.1,-,N/A,,Unknown,320,2013-06-24 10:30:00
9:00 PM,48,45,84,30.01,,NNW,6.9,,,,,330,2013-06-24 11:00:00
9:00 PM,48.2,44.6,87,30.01,6.2,NNW,6.9,-,N/A,,Unknown,330,2013-06-24 11:00:00
9:30 PM,48.2,44.6,87,30.01,6.2,NW,6.9,-,N/A,,Unknown,320,2013-06-24 11:30:00
10:00 PM,47,41,73,30.01,,NNW,8.1,,,,,330,2013-06-24 12:00:00
10:00 PM,48.2,41.0,76,30.01,6.2,NNW,8.1,-,N/A,,Unknown,330,2013-06-24 12:00:00
10:30 PM,48.2,41.0,76,30.01,6.2,NW,9.2,-,N/A,,Unknown,320,2013-06-24 12:30:00
11:00 PM,46.4,41.0,81,29.98,6.2,NW,5.8,-,N/A,,Unknown,310,2013-06-24 13:00:00
11:30 PM,46.4,41.0,81,29.98,6.2,NW,8.1,-,N/A,,Unknown,320,2013-06-24 13:30:00